Wind_Speed
68 70 72 73 75 76 76 76 75 75 74 74 75 75 76 77 77 78 79 80 81 82 83 84 85 86 86 87 88 89 90 91 92 89 90 91 91 90 90 90 91 91 90
72 73 75 76 77 77 77 76 75 75 75 75 76 77 78 78 79 80 81 81 82 83 84 85 86 87 87 88 88 89 90 91 92 91 89 91 92 92 92 92 92 92 93
75 76 77 77 78 78 77 76 75 76 76 78 78 79 79 80 81 82 83 83 84 84 84 84 84 84 83 84 85 85 86 88 90 91 91 92 94 95 95 94 94 94 94
76 77 78 78 78 77 76 76 77 78 79 79 80 80 81 82 83 83 83 83 82 81 80 79 77 77 77 77 77 78 79 80 82 84 85 86 89 92 94 95 95 95 95
78 78 77 77 77 76 77 78 79 80 80 80 81 82 82 82 81 80 79 77 75 73 72 71 71 71 71 72 73 73 74 75 76 77 76 76 77 80 84 88 90 91 93
77 76 76 76 76 77 78 79 80 81 81 81 81 80 78 77 75 72 70 68 67 66 66 67 68 69 70 71 71 71 72 72 72 72 71 69 69 71 73 76 79 82 84
74 74 74 75 77 78 79 80 80 80 80 79 76 74 71 69 67 65 64 64 64 65 66 67 68 70 71 70 69 69 68 67 67 67 65 63 62 63 65 66 69 71 73
72 73 74 76 77 79 79 79 78 77 75 72 69 66 65 64 64 63 64 64 65 66 67 68 69 69 69 68 66 63 61 60 60 60 58 56 54 53 55 56 59 62 63
72 73 75 76 77 77 76 75 73 70 67 64 63 62 62 63 63 64 65 65 66 67 67 67 67 65 65 64 62 59 55 54 53 52 50 48 47 47 48 48 50 53 52
72 74 74 74 73 72 71 68 65 62 61 60 60 60 61 62 63 64 65 65 65 65 64 64 63 63 62 61 59 56 52 49 47 46 46 46 46 46 47 47 48 48 48
72 71 70 69 68 67 64 61 59 59 59 58 59 59 60 61 62 64 64 65 64 63 63 62 61 61 59 57 55 52 49 46 43 43 43 44 45 46 47 48 50 50 49
67 66 65 64 63 61 59 57 57 57 57 57 58 59 60 61 62 63 64 64 64 63 62 61 60 59 57 54 51 48 46 44 42 42 42 43 45 46 47 48 50 51 51
63 63 62 60 59 57 56 56 56 56 57 58 59 60 60 61 62 62 62 62 62 61 60 60 59 57 54 50 47 45 44 43 43 43 44 45 46 48 49 50 52 53 54
60 59 58 57 56 56 55 56 56 57 58 59 60 61 62 62 62 61 61 60 59 59 58 57 56 53 49 45 43 43 43 44 44 44 45 47 48 50 51 53 54 55 55
58 57 56 56 56 56 56 56 57 58 60 61 62 63 64 63 62 61 59 58 57 57 56 54 51 46 42 41 40 41 41 42 43 45 46 47 47 48 50 51 52 53 53
56 56 56 56 57 57 58 58 59 61 62 64 65 66 65 64 61 60 58 56 55 55 53 50 45 41 38 37 37 38 40 41 42 44 45 45 45 45 45 45 46 47 48
56 56 57 58 59 59 60 61 62 63 65 67 68 69 67 64 61 59 56 54 53 53 49 45 41 37 35 35 35 35 37 38 40 41 42 42 41 40 40 40 41 42 44
57 58 59 60 61 62 63 64 65 66 68 70 71 70 67 63 60 57 54 52 51 49 45 41 37 34 33 33 33 33 35 36 37 38 38 38 37 36 36 36 38 40 41
59 60 61 62 63 64 66 67 68 70 71 72 71 69 66 62 58 55 51 48 46 44 41 38 35 32 31 30 30 32 33 34 35 36 35 35 34 33 33 34 36 37 39
61 62 63 64 65 67 68 70 71 73 74 73 70 67 64 60 56 52 49 45 43 40 38 35 32 30 29 29 29 31 32 33 34 34 34 33 32 32 32 33 34 35 36
62 63 64 66 67 69 71 73 74 75 75 73 70 66 62 58 53 50 47 43 39 36 34 31 30 29 28 28 29 30 32 32 33 33 33 32 31 31 31 32 33 34 34
62 63 65 67 69 72 74 75 76 76 75 72 67 64 60 54 50 46 43 39 36 33 31 29 28 28 27 28 29 30 31 32 32 32 32 31 30 30 30 30 30 30 30
63 64 67 69 72 74 75 76 75 74 71 68 63 59 55 50 45 41 38 36 33 30 28 27 26 26 26 27 28 29 30 31 31 31 30 30 29 28 28 28 28 28 27
64 67 69 72 73 74 74 73 71 68 65 62 57 53 48 44 40 37 34 31 29 27 26 24 24 24 25 27 28 29 30 30 30 30 30 29 28 27 26 26 26 26 25
67 69 70 71 71 70 68 66 64 61 57 52 47 43 39 36 34 32 29 27 26 25 23 22 22 23 24 25 27 28 29 29 29 29 28 28 28 27 26 25 24 24 23
67 68 68 67 65 62 59 57 55 50 45 40 36 32 29 28 28 27 26 24 23 22 21 20 20 21 22 24 26 27 28 29 29 28 28 27 26 26 25 24 24 23 22
Wind_Direction
293 293 293 292 292 292 292 292 292 291 290 290 289 289 289 289 289 288 288 288 288 287 286 286 285 284 283 282 281 279 278 276 274 272 270 268 267 265 264 262 261 261 261
294 294 294 294 293 293 293 292 292 291 291 291 291 291 291 291 291 290 290 290 289 288 288 287 286 285 284 283 281 280 279 278 276 274 270 268 267 265 263 261 260 259 258
295 295 294 294 293 293 293 293 292 292 292 292 293 293 293 292 292 292 291 291 290 289 289 288 287 285 284 283 282 281 280 279 278 277 274 271 269 266 264 262 260 258 256
295 294 294 293 293 293 293 293 293 294 294 294 294 294 293 293 293 292 292 291 290 290 289 288 286 285 284 283 282 281 280 280 279 278 276 274 271 269 266 263 261 259 256
294 293 293 293 293 293 294 294 294 295 295 295 294 294 294 293 292 292 291 290 290 289 288 287 287 286 286 285 284 283 282 281 280 279 277 275 273 271 268 266 263 260 257
293 293 293 293 293 294 294 294 295 295 295 295 294 294 293 293 292 292 291 291 290 290 290 289 289 289 289 288 287 287 286 284 283 281 279 277 274 272 270 268 265 262 259
293 293 293 293 294 294 295 295 296 296 295 295 295 294 294 293 293 293 293 293 293 292 292 292 292 292 291 290 290 289 288 287 285 283 281 278 276 273 271 269 266 264 261
292 293 293 293 294 295 296 296 296 296 296 296 295 295 295 294 295 295 295 295 295 294 294 294 294 294 293 292 292 290 289 287 286 285 283 281 279 276 273 270 268 265 263
292 293 293 294 295 296 296 296 296 296 296 296 296 296 296 296 296 296 296 296 296 296 296 296 296 296 295 294 293 292 290 287 285 284 283 281 280 278 276 274 271 269 266
293 294 295 296 296 297 297 297 297 297 297 297 297 297 297 297 297 297 297 297 297 297 297 297 297 297 296 295 294 292 289 286 284 282 281 280 279 278 277 276 275 273 271
294 296 297 297 297 297 297 297 297 297 298 298 298 298 298 298 298 298 298 298 297 297 297 297 297 297 296 295 294 291 289 286 283 280 278 277 278 278 278 278 277 277 276
296 297 297 298 297 297 297 297 297 298 299 299 299 300 300 300 300 299 299 298 298 298 298 298 298 297 297 295 292 289 287 286 285 283 281 280 279 279 279 279 278 278 278
296 297 298 298 298 297 297 298 298 299 299 300 301 301 302 302 301 300 300 299 299 299 299 299 299 299 297 294 291 289 288 288 288 287 286 285 284 283 282 281 281 280 279
297 297 297 297 297 297 297 298 299 300 301 302 303 303 304 303 302 301 300 299 299 299 299 299 299 298 295 292 289 288 288 288 288 288 287 287 286 285 284 283 282 281 280
296 296 296 295 296 296 297 299 300 301 303 304 305 305 305 304 303 301 299 298 298 298 299 299 298 295 292 290 289 289 289 290 291 291 291 289 288 287 286 284 283 282 282
295 294 294 294 295 296 297 299 301 302 304 305 305 305 305 304 302 301 299 298 297 298 299 299 297 294 291 290 290 291 293 294 295 296 295 294 292 290 288 286 285 285 285
293 292 292 293 294 296 298 299 301 302 304 305 305 305 304 303 301 300 298 297 296 298 298 298 296 293 292 291 292 294 297 299 301 301 301 299 296 293 289 288 287 289 290
291 291 292 293 294 295 297 298 299 301 302 303 304 303 302 301 300 298 297 295 295 296 296 296 294 293 292 293 295 299 302 304 306 306 305 303 300 296 293 291 291 293 294
289 290 291 292 293 295 296 297 298 299 301 302 301 300 299 299 298 296 295 293 293 293 293 293 292 292 293 296 299 303 306 308 309 309 308 306 303 300 298 296 296 298 298
289 290 291 292 293 294 295 296 297 298 299 300 299 297 296 295 294 292 291 290 290 289 290 290 290 292 294 298 302 305 308 310 311 312 312 310 308 305 303 301 300 301 301
289 290 290 291 293 294 295 296 297 297 298 297 296 294 292 291 290 288 286 285 285 286 287 288 289 292 295 299 303 306 309 310 311 313 314 313 311 310 308 306 305 304 302
289 290 291 292 293 294 295 296 296 296 296 295 293 290 288 287 284 281 280 281 281 282 283 285 288 291 294 299 303 305 307 309 310 312 314 315 315 313 312 312 310 309 307
289 290 291 292 294 295 296 296 296 295 294 293 290 287 284 281 277 273 272 274 275 276 278 281 285 289 294 299 302 305 306 307 307 308 310 313 316 316 316 316 316 313 311
289 291 292 294 295 296 296 296 296 295 293 291 288 283 278 273 269 265 264 266 267 271 274 278 283 289 296 302 305 306 307 308 308 307 308 310 314 317 318 319 321 320 316
290 292 294 295 296 297 297 297 296 295 293 289 284 278 271 264 258 255 255 258 261 266 271 276 283 291 299 304 308 310 310 310 309 309 308 308 310 315 318 321 322 324 323
292 294 295 296 297 298 298 299 298 296 293 287 280 272 262 252 247 245 247 250 256 263 269 276 284 293 300 306 310 313 314 313 312 311 309 307 306 309 313 317 321 324 325
Height
5692 5687 5681 5675 5669 5663 5657 5651 5645 5639 5633 5628 5622 5617 5612 5607 5601 5596 5591 5585 5580 5574 5569 5564 5559 5554 5549 5545 5541 5537 5534 5531 5532 5542 5543 5544 5545 5547 5551 5553 5556 5560 5565
5675 5669 5662 5656 5650 5643 5637 5632 5626 5620 5614 5608 5602 5597 5591 5585 5580 5574 5569 5563 5557 5551 5545 5540 5534 5529 5523 5518 5514 5510 5506 5503 5501 5507 5514 5512 5513 5514 5517 5521 5526 5530 5536
5656 5650 5644 5637 5630 5624 5618 5612 5606 5601 5594 5588 5582 5576 5570 5564 5558 5552 5546 5539 5533 5526 5520 5514 5508 5503 5497 5492 5487 5483 5479 5476 5473 5473 5480 5481 5480 5481 5483 5488 5493 5498 5505
5638 5632 5625 5618 5611 5605 5599 5593 5587 5581 5574 5568 5561 5555 5548 5541 5535 5529 5522 5516 5509 5502 5495 5489 5483 5478 5472 5468 5464 5459 5455 5452 5448 5445 5447 5449 5448 5448 5449 5453 5460 5465 5472
5620 5613 5606 5599 5592 5586 5580 5574 5567 5561 5554 5547 5540 5533 5526 5518 5512 5505 5499 5493 5487 5480 5474 5468 5462 5456 5450 5445 5441 5438 5433 5429 5425 5421 5420 5421 5421 5419 5418 5420 5425 5432 5438
5601 5595 5587 5580 5574 5568 5561 5554 5548 5541 5533 5526 5518 5511 5503 5496 5489 5483 5478 5473 5467 5461 5456 5450 5443 5437 5431 5425 5421 5416 5411 5406 5402 5398 5397 5397 5397 5394 5393 5393 5394 5400 5408
5582 5576 5569 5562 5556 5549 5542 5535 5527 5519 5512 5504 5497 5489 5482 5475 5470 5464 5459 5454 5449 5443 5437 5431 5425 5418 5410 5406 5401 5396 5391 5385 5379 5375 5375 5375 5374 5373 5371 5371 5370 5371 5377
5564 5557 5550 5544 5537 5530 5522 5514 5506 5498 5491 5484 5477 5470 5464 5458 5452 5446 5441 5436 5431 5425 5419 5412 5406 5399 5391 5385 5381 5377 5372 5366 5360 5356 5355 5354 5353 5351 5350 5350 5349 5350 5354
5546 5539 5532 5525 5517 5510 5502 5494 5486 5479 5473 5466 5460 5454 5448 5441 5435 5429 5424 5419 5414 5408 5401 5394 5386 5380 5373 5366 5361 5358 5354 5349 5344 5341 5338 5337 5336 5334 5332 5332 5331 5331 5335
5526 5520 5512 5505 5497 5490 5483 5475 5469 5462 5456 5450 5444 5438 5432 5425 5419 5413 5407 5402 5397 5391 5384 5377 5369 5362 5356 5349 5343 5340 5337 5334 5331 5328 5325 5323 5321 5320 5317 5316 5315 5315 5317
5507 5500 5493 5486 5479 5472 5465 5458 5452 5447 5441 5435 5430 5423 5417 5410 5404 5397 5390 5384 5379 5373 5367 5361 5354 5346 5340 5333 5327 5323 5320 5318 5316 5314 5312 5310 5307 5306 5304 5301 5299 5298 5300
5488 5482 5475 5468 5461 5455 5449 5443 5437 5432 5426 5420 5414 5408 5401 5394 5388 5381 5374 5367 5361 5355 5350 5343 5337 5330 5324 5319 5313 5309 5306 5303 5302 5300 5298 5296 5294 5292 5289 5286 5284 5282 5283
5470 5463 5457 5451 5445 5439 5434 5428 5422 5417 5411 5405 5399 5393 5386 5379 5372 5365 5358 5351 5344 5338 5333 5326 5320 5314 5309 5304 5300 5296 5293 5290 5288 5286 5284 5281 5278 5276 5273 5271 5268 5266 5266
5453 5447 5440 5435 5429 5424 5419 5413 5408 5402 5396 5390 5383 5377 5370 5363 5356 5349 5342 5336 5330 5323 5318 5312 5306 5300 5294 5290 5287 5284 5281 5278 5275 5273 5270 5266 5263 5260 5256 5253 5251 5248 5247
5436 5430 5425 5419 5414 5409 5404 5398 5392 5387 5380 5373 5367 5360 5354 5348 5340 5333 5326 5321 5315 5309 5304 5298 5292 5287 5283 5279 5275 5272 5269 5265 5262 5258 5254 5251 5247 5243 5239 5235 5232 5229 5227
5420 5414 5409 5404 5399 5394 5388 5383 5376 5370 5364 5357 5350 5343 5337 5331 5324 5317 5311 5305 5300 5295 5290 5284 5279 5275 5272 5268 5265 5261 5257 5253 5248 5244 5239 5235 5231 5227 5223 5219 5215 5212 5210
5404 5399 5393 5388 5383 5378 5372 5367 5360 5354 5347 5340 5333 5326 5319 5313 5307 5301 5296 5291 5286 5281 5276 5272 5268 5264 5261 5257 5254 5250 5246 5241 5236 5231 5225 5221 5216 5213 5209 5206 5202 5199 5195
5387 5382 5377 5372 5367 5361 5356 5350 5343 5337 5330 5322 5315 5308 5302 5296 5291 5285 5281 5277 5272 5268 5264 5260 5257 5254 5250 5247 5243 5239 5235 5230 5225 5219 5214 5209 5204 5200 5197 5194 5190 5186 5182
5371 5366 5361 5356 5350 5344 5338 5332 5326 5319 5312 5305 5297 5289 5284 5279 5275 5270 5266 5263 5260 5256 5253 5249 5246 5244 5241 5237 5234 5230 5225 5220 5215 5210 5204 5199 5194 5190 5186 5183 5179 5174 5169
5354 5349 5344 5338 5332 5326 5320 5313 5307 5300 5293 5286 5279 5271 5265 5262 5258 5255 5252 5250 5248 5245 5242 5240 5237 5234 5231 5228 5224 5220 5216 5211 5206 5201 5195 5190 5186 5181 5177 5172 5168 5163 5159
5337 5331 5326 5320 5314 5308 5301 5294 5286 5279 5272 5265 5258 5252 5247 5245 5242 5239 5237 5236 5235 5234 5232 5230 5227 5225 5222 5219 5216 5212 5208 5203 5198 5193 5188 5182 5177 5173 5168 5163 5158 5153 5148
5319 5314 5308 5302 5295 5288 5280 5273 5265 5257 5249 5243 5237 5232 5228 5227 5226 5224 5224 5224 5223 5222 5222 5220 5218 5216 5214 5211 5208 5204 5200 5195 5191 5186 5181 5175 5170 5165 5160 5155 5150 5144 5140
5301 5295 5289 5282 5275 5267 5259 5250 5242 5234 5227 5220 5215 5211 5209 5209 5209 5210 5211 5212 5212 5212 5212 5211 5210 5208 5206 5203 5200 5196 5192 5188 5183 5178 5174 5169 5164 5159 5154 5148 5143 5138 5133
5282 5276 5269 5262 5254 5246 5237 5228 5220 5212 5205 5199 5194 5191 5190 5191 5193 5196 5198 5200 5202 5202 5203 5202 5202 5200 5197 5194 5191 5187 5184 5179 5175 5170 5166 5162 5157 5153 5148 5143 5138 5132 5127
5263 5256 5249 5242 5234 5225 5216 5208 5199 5192 5184 5178 5174 5173 5173 5176 5179 5183 5187 5190 5192 5193 5194 5194 5193 5192 5189 5186 5183 5179 5175 5171 5166 5162 5158 5154 5150 5146 5142 5137 5133 5128 5123
5244 5237 5230 5222 5214 5206 5198 5190 5181 5174 5167 5162 5160 5159 5160 5164 5168 5173 5177 5181 5183 5185 5185 5186 5185 5184 5181 5179 5175 5171 5167 5162 5158 5154 5151 5147 5144 5140 5136 5132 5128 5124 5120